• In Czech Republic
  • List of Countries
  • For 7 days
  • Water Temperature
  • Satellite Maps
  • Weather Map
  • Weather Widgets
  • user-avatar
    Login

    Hourly Weather Merelbeke

    Today, 15 December, Friday

    Time Temperature Precipitation Wind Pressure Humidity
    00:00 0°C° 0 mm 4 mps 742 mmHg 89%
    01:00 0°C° 0 mm 5 mps 742 mmHg 89%
    02:00 0°C° 0 mm 5 mps 742 mmHg 90%
    03:00 0°C° 0 mm 5 mps 742 mmHg 90%
    04:00 0°C° 0 mm 5 mps 742 mmHg 91%
    05:00 0°C° 0 mm 4 mps 742 mmHg 92%
    06:00 0°C° 0 mm 4 mps 743 mmHg 93%
    07:00 +1°C° 0 mm 3 mps 743 mmHg 92%
    08:00 +1°C° 0 mm 3 mps 743 mmHg 92%
    09:00 +1°C° 0 mm 3 mps 743 mmHg 91%
    10:00 +2°C° 0.1 mm 3 mps 744 mmHg 89%
    11:00 +3°C° 0.1 mm 3 mps 744 mmHg 87%
    12:00 +4°C° 0.1 mm 3 mps 745 mmHg 85%
    13:00 +5°C° 0.1 mm 2 mps 745 mmHg 87%
    14:00 +4°C° 0.1 mm 2 mps 746 mmHg 89%
    15:00 +4°C° 0.1 mm 2 mps 746 mmHg 91%
    16:00 +4°C° 0.2 mm 2 mps 747 mmHg 91%
    17:00 +4°C° 0.2 mm 2 mps 748 mmHg 91%
    18:00 +3°C° 0.2 mm 2 mps 748 mmHg 92%
    19:00 +2°C° 0 mm 3 mps 749 mmHg 91%
    20:00 +2°C° 0 mm 3 mps 750 mmHg 91%
    21:00 +2°C° 0 mm 3 mps 751 mmHg 91%
    22:00 +2°C° 0 mm 3 mps 752 mmHg 91%
    23:00 +2°C° 0 mm 3 mps 753 mmHg 90%

    Tomorrow, 16 December, Saturday

    Time Temperature Precipitation Wind Pressure Humidity
    00:00 +2°C° 0 mm 3 mps 753 mmHg 89%
    01:00 +2°C° 0.1 mm 3 mps 754 mmHg 88%
    02:00 +2°C° 0.1 mm 3 mps 755 mmHg 87%
    03:00 +1°C° 0.1 mm 4 mps 755 mmHg 86%
    04:00 +1°C° 0.2 mm 4 mps 756 mmHg 85%
    05:00 +1°C° 0.2 mm 4 mps 756 mmHg 84%
    06:00 +1°C° 0.2 mm 4 mps 757 mmHg 84%
    07:00 +1°C° 0.2 mm 4 mps 758 mmHg 83%
    08:00 +3°C° 0.2 mm 4 mps 758 mmHg 82%
    09:00 +2°C° 0.2 mm 5 mps 759 mmHg 81%
    10:00 +2°C° 0.2 mm 5 mps 759 mmHg 78%
    11:00 +3°C° 0.2 mm 6 mps 760 mmHg 74%
    12:00 +4°C° 0.2 mm 6 mps 760 mmHg 71%
    13:00 +3°C° 0.2 mm 6 mps 760 mmHg 73%
    14:00 +3°C° 0.2 mm 6 mps 761 mmHg 74%
    15:00 +3°C° 0.2 mm 6 mps 761 mmHg 76%
    16:00 +2°C° 0.2 mm 5 mps 762 mmHg 77%
    17:00 +2°C° 0.2 mm 5 mps 762 mmHg 79%
    18:00 +1°C° 0.2 mm 5 mps 763 mmHg 81%
    19:00 +1°C° 0.2 mm 5 mps 763 mmHg 81%
    20:00 +1°C° 0.2 mm 5 mps 764 mmHg 82%
    21:00 +1°C° 0.2 mm 4 mps 765 mmHg 83%
    22:00 +1°C° 0.1 mm 4 mps 765 mmHg 83%
    23:00 +1°C° 0.1 mm 4 mps 765 mmHg 84%

    Day after tomorrow, 17 December, Sunday

    Time Temperature Precipitation Wind Pressure Humidity
    00:00 +1°C° 0.1 mm 4 mps 766 mmHg 84%
    01:00 +1°C° 0.1 mm 4 mps 766 mmHg 84%
    02:00 +1°C° 0.1 mm 4 mps 766 mmHg 84%
    03:00 +1°C° 0.1 mm 4 mps 767 mmHg 84%
    04:00 +1°C° 0.1 mm 4 mps 767 mmHg 85%
    05:00 0°C° 0.1 mm 4 mps 767 mmHg 85%
    06:00 0°C° 0.1 mm 4 mps 767 mmHg 86%
    07:00 0°C° 0 mm 4 mps 768 mmHg 85%
    08:00 0°C° 0 mm 4 mps 768 mmHg 84%
    09:00 +1°C° 0 mm 4 mps 769 mmHg 82%
    10:00 +3°C° 0 mm 4 mps 769 mmHg 80%
    11:00 +2°C° 0 mm 5 mps 769 mmHg 77%
    12:00 +3°C° 0 mm 5 mps 769 mmHg 75%
    13:00 +3°C° 0 mm 5 mps 768 mmHg 76%
    14:00 +3°C° 0 mm 5 mps 768 mmHg 78%
    15:00 +3°C° 0 mm 5 mps 768 mmHg 80%
    16:00 +3°C° 0 mm 5 mps 768 mmHg 81%
    17:00 +3°C° 0 mm 6 mps 768 mmHg 83%
    18:00 +3°C° 0 mm 6 mps 768 mmHg 85%
    19:00 +3°C° 0.3 mm 7 mps 767 mmHg 86%
    20:00 +4°C° 0.3 mm 7 mps 767 mmHg 88%
    21:00 +4°C° 0.3 mm 8 mps 766 mmHg 89%
    22:00 +5°C° 0.7 mm 8 mps 766 mmHg 89%
    23:00 +5°C° 0.7 mm 9 mps 766 mmHg 89%

    18 December, Monday

    Time Temperature Precipitation Wind Pressure Humidity
    00:00 +6°C° 0.7 mm 9 mps 765 mmHg 89%
    01:00 +6°C° 0.3 mm 8 mps 765 mmHg 89%
    02:00 +7°C° 0.3 mm 8 mps 765 mmHg 89%
    03:00 +8°C° 0.3 mm 7 mps 765 mmHg 89%
    04:00 +7°C° 0 mm 6 mps 766 mmHg 87%
    05:00 +6°C° 0 mm 5 mps 766 mmHg 84%
    06:00 +5°C° 0 mm 4 mps 767 mmHg 81%
    07:00 +5°C° 0 mm 4 mps 768 mmHg 81%
    08:00 +5°C° 0 mm 4 mps 768 mmHg 81%
    09:00 +5°C° 0 mm 4 mps 769 mmHg 81%
    10:00 +5°C° 0 mm 4 mps 769 mmHg 77%
    11:00 +6°C° 0 mm 4 mps 770 mmHg 74%
    12:00 +7°C° 0 mm 5 mps 770 mmHg 71%
    13:00 +7°C° 0 mm 4 mps 770 mmHg 74%
    14:00 +6°C° 0 mm 4 mps 770 mmHg 77%
    15:00 +7°C° 0 mm 3 mps 771 mmHg 81%
    16:00 +5°C° 0 mm 3 mps 771 mmHg 83%
    17:00 +5°C° 0 mm 2 mps 772 mmHg 86%
    18:00 +5°C° 0 mm 2 mps 772 mmHg 89%
    19:00 +4°C° 0 mm 2 mps 773 mmHg 89%
    20:00 +4°C° 0 mm 2 mps 773 mmHg 90%
    21:00 +4°C° 0 mm 2 mps 774 mmHg 90%
    22:00 +5°C° 0 mm 1 mps 774 mmHg 91%
    23:00 +5°C° 0 mm 1 mps 774 mmHg 91%

    19 December, Tuesday

    Time Temperature Precipitation Wind Pressure Humidity
    00:00 +5°C° 0 mm 1 mps 774 mmHg 92%
    01:00 +4°C° 0 mm 1 mps 774 mmHg 92%
    02:00 +4°C° 0 mm 1 mps 775 mmHg 92%
    03:00 +4°C° 0 mm 1 mps 775 mmHg 92%
    04:00 +4°C° 0 mm 1 mps 775 mmHg 92%
    05:00 +4°C° 0 mm 1 mps 775 mmHg 92%
    06:00 +4°C° 0 mm 1 mps 776 mmHg 92%
    07:00 +4°C° 0 mm 1 mps 776 mmHg 92%
    08:00 +3°C° 0 mm 2 mps 776 mmHg 92%
    09:00 +3°C° 0 mm 2 mps 777 mmHg 91%
    10:00 +4°C° 0 mm 2 mps 777 mmHg 88%
    11:00 +4°C° 0 mm 3 mps 777 mmHg 84%
    12:00 +5°C° 0 mm 3 mps 777 mmHg 80%
    13:00 +5°C° 0 mm 3 mps 777 mmHg 82%
    14:00 +4°C° 0 mm 3 mps 777 mmHg 84%
    15:00 +4°C° 0 mm 3 mps 776 mmHg 86%
    16:00 +4°C° 0 mm 3 mps 777 mmHg 87%
    17:00 +3°C° 0 mm 3 mps 777 mmHg 88%
    18:00 +2°C° 0 mm 3 mps 777 mmHg 89%
    19:00 +3°C° 0.1 mm 4 mps 777 mmHg 89%
    20:00 +3°C° 0.1 mm 4 mps 777 mmHg 88%
    21:00 +3°C° 0.1 mm 4 mps 777 mmHg 87%
    22:00 +3°C° 0.2 mm 4 mps 777 mmHg 87%
    23:00 +4°C° 0.2 mm 4 mps 777 mmHg 87%

    20 December, Wednesday

    Time Temperature Precipitation Wind Pressure Humidity
    00:00 +4°C° 0.2 mm 4 mps 777 mmHg 87%
    01:00 +4°C° 0.1 mm 4 mps 777 mmHg 88%
    02:00 +4°C° 0.1 mm 4 mps 777 mmHg 89%
    03:00 +5°C° 0.1 mm 4 mps 777 mmHg 90%
    04:00 +5°C° 0.1 mm 4 mps 777 mmHg 92%
    05:00 +5°C° 0.1 mm 3 mps 777 mmHg 93%
    06:00 +5°C° 0.1 mm 3 mps 777 mmHg 95%
    07:00 +7°C° 0 mm 3 mps 777 mmHg 95%
    08:00 +7°C° 0 mm 3 mps 778 mmHg 96%
    09:00 +8°C° 0 mm 3 mps 778 mmHg 96%
    10:00 +8°C° 0 mm 3 mps 778 mmHg 95%
    11:00 +9°C° 0 mm 3 mps 778 mmHg 94%
    12:00 +10°C° 0 mm 3 mps 778 mmHg 93%
    13:00 +10°C° 0 mm 3 mps 778 mmHg 94%
    14:00 +10°C° 0 mm 3 mps 778 mmHg 94%
    15:00 +10°C° 0 mm 3 mps 778 mmHg 95%
    16:00 +9°C° 0 mm 3 mps 778 mmHg 95%
    17:00 +9°C° 0 mm 2 mps 778 mmHg 96%
    18:00 +9°C° 0 mm 2 mps 779 mmHg 96%
    19:00 +8°C° 0 mm 2 mps 779 mmHg 96%
    20:00 +8°C° 0 mm 2 mps 779 mmHg 96%
    21:00 +8°C° 0 mm 2 mps 779 mmHg 96%
    22:00 +7°C° 0 mm 2 mps 779 mmHg 96%
    23:00 +7°C° 0 mm 2 mps 779 mmHg 96%
    Show more